TimePDT,TemperatureF,Dew PointF,Humidity,Sea Level PressureIn,VisibilityMPH,Wind Direction,Wind SpeedMPH,Gust SpeedMPH,PrecipitationIn,Events,Conditions,WindDirDegrees,DateUTC
12:53 AM,37.0,30.9,79,30.15,10.0,North,6.9,-,N/A,,Clear,10,2013-03-30 07:53:00
1:53 AM,35.1,30.9,85,30.15,10.0,Calm,Calm,-,N/A,,Clear,0,2013-03-30 08:53:00
2:53 AM,37.9,34.0,86,30.13,10.0,NNE,4.6,-,N/A,,Clear,30,2013-03-30 09:53:00
3:53 AM,37.9,34.0,86,30.13,10.0,Calm,Calm,-,N/A,,Clear,0,2013-03-30 10:53:00
4:53 AM,36.0,30.9,82,30.13,10.0,Calm,Calm,-,N/A,,Clear,0,2013-03-30 11:53:00
5:53 AM,37.0,33.1,86,30.13,10.0,NNE,5.8,-,N/A,,Clear,30,2013-03-30 12:53:00
6:01 AM,37.4,33.8,87,30.17,7.0,NE,4.6,-,N/A,,Mostly Cloudy,50,2013-03-30 13:01:00
6:53 AM,35.1,32.0,89,30.14,10.0,North,8.1,-,N/A,,Scattered Clouds,10,2013-03-30 13:53:00
7:53 AM,39.0,34.0,82,30.16,10.0,NE,5.8,-,N/A,,Scattered Clouds,50,2013-03-30 14:53:00
8:53 AM,48.0,39.0,71,30.14,10.0,NNW,10.4,-,N/A,,Scattered Clouds,340,2013-03-30 15:53:00
9:53 AM,53.1,37.9,57,30.14,10.0,NNW,6.9,-,N/A,,Scattered Clouds,340,2013-03-30 16:53:00
10:53 AM,57.0,37.0,47,30.14,10.0,Variable,3.5,-,N/A,,Scattered Clouds,0,2013-03-30 17:53:00
11:53 AM,60.1,37.0,42,30.12,10.0,NNW,4.6,-,N/A,,Partly Cloudy,330,2013-03-30 18:53:00
12:53 PM,64.9,35.1,33,30.09,10.0,Calm,Calm,-,N/A,,Partly Cloudy,0,2013-03-30 19:53:00
1:53 PM,70.0,30.9,24,30.06,10.0,SE,12.7,18.4,N/A,,Scattered Clouds,140,2013-03-30 20:53:00
2:53 PM,70.0,28.0,21,30.02,10.0,SE,9.2,21.9,N/A,,Scattered Clouds,140,2013-03-30 21:53:00
3:53 PM,72.0,28.9,20,29.98,10.0,East,10.4,-,N/A,,Mostly Cloudy,90,2013-03-30 22:53:00
4:53 PM,70.0,28.0,21,29.97,10.0,SE,9.2,-,N/A,,Mostly Cloudy,140,2013-03-30 23:53:00
5:53 PM,66.9,32.0,27,29.97,10.0,SSW,6.9,-,N/A,,Mostly Cloudy,200,2013-03-31 00:53:00
6:53 PM,63.0,37.0,38,29.97,10.0,Variable,3.5,-,N/A,,Mostly Cloudy,0,2013-03-31 01:53:00
7:53 PM,59.0,37.0,44,29.99,10.0,SW,15.0,-,N/A,,Mostly Cloudy,220,2013-03-31 02:53:00
8:53 PM,55.9,37.0,49,29.98,10.0,WSW,4.6,-,N/A,,Mostly Cloudy,240,2013-03-31 03:53:00
9:53 PM,51.1,37.9,61,29.97,10.0,SSW,4.6,-,N/A,,Mostly Cloudy,200,2013-03-31 04:53:00
10:53 PM,52.0,39.0,61,29.96,10.0,Calm,Calm,-,N/A,,Mostly Cloudy,0,2013-03-31 05:53:00
11:53 PM,46.0,37.0,71,29.95,10.0,Calm,Calm,-,N/A,,Clear,0,2013-03-31 06:53:00